SCP
0 0 0 0 0 0 0 0 0 0 0 0 0 0 0 0 0 0 0 0 0 0 0 0 0 0 0 0 0 0 0 0 0 0 0 0 0 0
0 0 0 0 0 0 0 0 0 0 0 0 0 0 0 0 0 0 0 0 0 0 0 0 0 0 0 0 0 0 0 0 0 0 0 0 0 0
0 0 0 0 0 0 0 0 0 0 0 0 0 0 0 0 0 0 0 0 0 0 0 0 0 0 0 0 0 0 0 0 0 0 0 0 0 0
0 0 0 0 0 0 0 0 0 0 0 0 0 0 0 0 0 0 0 0 0 0 0 0 0 0 0 0 0 0 0 0 0 0 0 0 0 0
0 0 0 0 0 0 0 0 0 0 0 0 0 0 0 0 0 0 0 0 0 0 0 0 0 0 0 0 0 0 0 0 0 0 0 0 0 0
0 0 0 0 0 0 0 0 0 0 0 0 0 0 0 0 0 0 0 0 0 0 0 0 0 0 0 0 0 0 0 0 0 0 0 0 0 0
0 0 0 0 0 0 0 0 0 0 0 0 0 0 0 0 0 0 0 0 0 0 0 0 0 0 0 0 0 0 0 0 0 0 0 0 0 0
0 0 0 0 0 0 0 0 0 0 0 0 0 0 0 0 0 0 0 0 0 0 0 0 0 0 0 0 0 0 0 0 0 0 0 0 0 0
0 0 0 0 0 0 0 0 0 0 0 0 0 0 0 0 0 0 0 0 0 0 0 0 0 0 0 0 0 0 0 0 0 0 0 0 0 0
0 0 0 0 0 0 0 0 0 0 0 0 0 0 0 0 0 0 0 0 0 0 0 0 0 0 0 0 0 0 0 0 0 0 0 0 0 0
0 0 0 0 0 0 0 0 0 0 0 0 0 0 0 0 0 0 0 0 0 0 0 0 0 0 0 0 0 0 0 0 0 0 0 0 0 0
0 0 0 0 0 0 0 0 0 0 0 0 0 0 0 0 0 0 0 0 0 0 0 0 0 0 0 0 0 0 0 0 0 0 0 0 0 0
0 0 0 0 0 0 0 0 0 0 0 0 0 0 0 0 0 0 0 0 0 0 0 0 0 0 0 0 0 0 0 0 0 0 0 0 0 0
0 0 0 0 0 0 0 0 0 0 0 0 0 0 0 0 0 0 0 0 0 0 0 0 0 0 0 0 0 0 0 0 0 0 0 0 0 0
0 0 0 0 0 0 0 0 0 0 0 0 0 0 0 0 0 0 0 0 0 0 0 0 0 0 0 0 0 0 0 0 0 0 0 0 0 0
0 0 0 0 0 0 0 0 0 0 0 0 0 0 0 0 0 0 0 0 0 0 0 0 0 0 0 0 0 0 0 0 0 0 0 0 0 0
0 0 0 0 0 0 0 0 0 0 0 0 0 0 0 0 0 0 0 0 0 0 0 0 0 0 0 0 0 0 0 0 0 0 0 0 0 0
0 0 0 0 0 0 0 0 0 0 0 0 0 0 0 0 0 0 0 0 0 0 0 0 0 0 0 0 0 0 0 0 0 0 0 0 0 0
0 0 0 0 0 0 0 0 0 0 0 0 0 0 0 0 0 0 0 0 0 0 0 0 0 0 0 0 0 0 0 0 0 0 0 0 0 0
0 0 0 0 0 0 0 0 0 0 0 0 0 0 0 0 0 0 0 0 0 0 0 0 0 0 0 0 0 0 0 0 0 0 0 0 0 0
0 0 0 0 0 0 0 0 0 0 0 0 0 0 0 0 0 0 0 0 0 0 0 0 0 0 0 0 0 0 0 0 0 0 0 0 0 0
0 0 0 0 0 0 0 0 0 0 0 0 0 0 0 0 0 0 0 0 0 0 0 0 0 0 0 0 0 0 0 0 0 0 0 0 0 0
0 0 0 0 0 0 0 0 0 0 0 0 0 0 0 0 0 0 0 0 0 0 0 0 0 0 0 0 0 0 0 0 0 0 0 0 0 0
Wind_Speed
5 5 4 3 3 3 3 3 3 4 4 3 2 3 2 2 2 3 3 3 4 4 4 3 3 3 3 3 4 5 5 5 5 6 5 5 5 6
4 5 5 4 3 3 4 4 4 4 4 3 2 2 2 2 3 3 3 4 5 5 5 4 4 4 4 4 4 4 5 5 6 5 5 5 5 6
6 6 6 5 4 4 4 4 4 4 5 4 2 2 3 3 3 3 3 4 4 5 5 5 5 6 5 5 5 5 5 5 5 5 5 6 6 7
8 7 7 5 6 5 4 5 5 5 5 5 4 3 4 4 4 4 3 3 3 4 5 6 6 6 6 6 5 5 5 5 5 5 6 6 7 8
8 8 8 7 7 6 6 5 4 4 4 5 5 3 3 3 4 3 4 3 3 4 6 7 6 7 7 7 7 6 6 5 6 6 6 7 8 8
8 8 8 8 8 7 6 6 5 5 5 5 4 4 3 3 3 3 3 3 3 3 4 4 5 7 7 8 8 7 7 7 7 7 7 7 7 8
8 8 8 9 10 8 6 6 6 5 5 5 5 4 4 3 4 3 4 3 3 3 3 3 4 4 5 7 8 8 8 8 8 8 8 8 8 8
8 8 8 8 10 11 11 11 9 8 7 6 6 6 6 5 4 4 4 4 4 3 3 4 4 5 4 5 7 9 10 9 9 9 9 9 9 9
8 7 6 6 8 7 9 10 11 11 11 8 8 8 8 6 6 6 6 6 5 3 3 5 4 5 4 5 9 10 10 10 9 9 9 9 9 9
7 8 8 7 7 8 7 7 8 8 9 9 8 8 7 7 7 7 6 5 4 3 4 5 4 5 4 5 8 9 9 9 10 9 9 9 9 10
7 7 8 8 9 10 8 7 7 7 8 10 10 10 10 10 7 4 5 5 5 4 4 4 3 3 4 5 5 7 8 9 9 9 10 10 9 9
5 6 9 9 9 10 8 7 8 7 6 6 7 8 8 8 9 8 7 6 5 4 4 4 3 2 3 3 3 3 5 7 9 9 9 9 9 6
4 4 5 8 10 10 9 7 8 7 5 6 5 5 5 5 6 6 6 6 6 5 4 4 3 3 4 3 3 4 4 4 4 6 8 9 9 7
4 4 5 8 9 9 7 7 9 7 4 5 5 5 4 4 4 4 4 4 5 5 5 5 4 5 4 4 4 3 4 4 4 4 4 7 8 9
4 5 6 7 7 6 7 8 6 4 4 5 5 5 4 4 3 2 2 2 3 3 4 5 5 5 5 5 5 4 4 4 4 4 4 4 4 5
4 5 6 6 5 5 5 5 4 4 4 4 4 3 3 3 3 3 3 2 2 3 3 4 5 6 5 6 5 5 5 4 4 4 4 4 4 4
3 2 3 3 3 3 3 3 3 3 4 3 3 3 3 3 3 2 3 3 3 3 3 2 2 3 4 5 5 6 5 4 4 4 4 5 5 5
3 3 3 3 3 3 3 3 3 4 4 3 3 3 3 3 3 3 3 3 4 4 3 3 2 2 3 3 5 6 5 4 4 4 4 5 6 5
2 2 3 3 3 3 3 3 3 3 3 3 3 3 3 3 3 3 3 3 4 4 4 3 3 3 4 5 3 4 5 4 4 4 5 5 6 5
2 2 2 2 2 3 3 3 3 3 3 3 3 3 4 4 4 4 4 4 4 3 3 3 4 4 5 5 3 3 5 5 4 5 4 4 5 6
2 2 3 3 3 3 3 3 3 3 3 3 3 4 4 4 4 4 4 5 4 4 4 4 3 4 3 2 2 3 3 5 5 4 4 4 4 4
2 2 3 3 3 3 3 2 2 3 3 3 3 3 3 3 4 4 4 4 3 3 4 3 2 2 3 3 4 4 4 3 4 5 5 5 3 3
3 3 3 3 2 2 2 2 3 2 3 3 3 3 3 3 3 3 3 3 3 3 3 2 2 2 3 3 3 3 4 3 3 2 2 3 4 5
Wind_Direction
222 222 226 231 232 228 220 213 223 239 244 240 226 209 224 230 225 226 226 226 242 252 257 251 251 264 270 274 280 283 279 282 282 286 272 269 280 277
222 225 229 229 229 229 222 221 231 235 247 245 251 231 219 235 236 239 235 233 229 235 244 242 245 252 258 261 268 278 276 272 270 270 275 275 279 285
223 225 228 229 228 231 230 225 225 223 240 254 266 256 239 234 233 235 232 230 222 221 232 239 245 248 250 252 258 267 278 277 271 272 276 283 284 287
222 224 227 225 228 229 232 226 225 223 230 246 252 249 249 237 235 233 233 236 233 227 234 242 243 243 245 245 250 258 265 268 272 272 273 277 282 286
226 226 227 225 228 227 227 227 228 229 228 235 247 249 254 239 232 232 235 235 238 234 234 238 242 245 247 246 249 252 252 254 260 264 267 273 278 283
230 231 230 228 229 229 225 229 228 224 223 228 237 240 242 241 233 228 237 236 244 246 239 245 245 246 245 247 248 248 247 248 251 256 259 265 271 278
231 232 233 233 235 231 227 226 224 222 221 223 229 237 236 227 230 232 241 253 256 241 243 243 242 244 240 239 241 241 244 245 248 251 252 257 264 269
233 235 235 234 233 232 233 233 231 224 223 224 229 232 237 238 239 233 235 245 252 222 241 257 247 248 249 245 243 245 245 245 246 250 253 256 259 263
234 235 236 231 231 231 234 237 237 238 238 234 235 235 236 232 231 234 236 241 251 235 232 252 244 252 253 250 249 249 246 245 247 250 251 255 258 261
234 232 233 232 229 231 234 236 237 236 238 237 240 242 242 239 231 235 240 250 266 249 233 249 246 253 257 252 249 246 245 250 252 249 252 254 256 260
237 234 232 233 232 231 232 235 241 246 249 247 248 250 250 242 234 225 221 226 246 242 228 240 246 264 265 259 249 244 248 250 251 252 254 255 257 262
241 235 234 237 236 232 229 229 238 242 240 242 248 250 247 238 229 221 218 224 237 240 210 216 230 237 256 250 256 253 249 249 251 255 257 257 261 263
244 241 238 240 245 243 238 235 242 247 242 238 240 242 240 234 229 226 225 227 233 242 210 210 229 231 240 256 265 258 248 246 248 251 252 253 257 260
249 248 246 247 248 248 246 244 248 247 241 235 236 236 236 237 235 235 235 243 247 248 224 217 231 230 237 252 256 253 252 249 248 249 249 251 253 257
254 254 257 253 254 249 246 246 245 241 235 234 235 238 239 239 236 234 234 238 255 253 239 233 233 231 238 245 250 247 256 254 242 242 250 253 255 257
260 251 251 254 251 252 246 241 238 238 238 240 241 242 234 225 227 226 229 224 246 262 253 245 241 237 244 246 247 246 244 239 235 245 253 258 257 253
259 254 248 243 235 235 236 235 234 235 238 241 238 236 230 227 229 223 227 234 240 248 260 262 261 256 255 254 250 244 246 250 244 242 248 256 256 254
244 246 248 242 240 237 236 236 236 234 235 235 227 225 230 230 232 228 224 231 239 244 250 248 245 260 256 258 246 246 247 250 247 243 247 255 261 258
236 246 255 257 250 244 241 238 240 239 231 225 225 226 228 229 225 225 225 231 238 243 245 241 238 244 251 261 253 235 247 251 246 248 247 250 259 262
258 257 263 267 268 259 250 247 247 239 228 228 232 230 226 227 227 227 228 232 239 247 249 245 240 247 254 263 271 270 250 247 246 250 256 262 266 267
269 268 267 263 261 259 261 261 253 244 238 234 233 231 224 224 228 229 234 235 243 245 246 255 262 277 283 264 259 266 267 259 261 259 258 258 266 262
274 274 275 273 268 263 261 259 258 252 238 234 231 229 224 222 225 227 229 233 241 246 258 266 265 265 261 251 255 267 279 287 275 266 269 264 257 248
278 277 276 277 274 271 262 255 255 254 245 244 238 228 220 217 220 223 228 232 236 236 243 256 267 267 264 251 254 262 270 281 285 285 288 296 280 279